Powrót do katalogu

FENGYUN 1C DEB

AktywnySSO
NORAD 37914·DEBRIS·🇨🇳 China

Wystrzelony May 10, 1999 z Taiyuan Satellite Launch Center

Loading…

Następne Przeloty (najbliższe 24 godziny)

TLE

Starzejące sięSource: Space-Track

Epoka: Sep 8, 2026, 05:49 UTC

1 37914U 99025ENP 26251.24246413  .00001126  00000-0  57115-3 0  9993
2 37914  99.2199 258.5885 0066127 314.8721  44.7093 14.17081172660049

Śledź FENGYUN 1C DEB w czasie rzeczywistym z AllMySat

Download on the App Store